Weather History for OIZB - November, 2013

Change the Weather History Date:

Saturday, November 23, 2013

  Actual Average Record
Temperature  
Mean Temperature 51 °F -  
Max Temperature 56 °F - - ()
Min Temperature 46 °F - - ()
Degree Days  
Heating Degree Days 14    
Growing Degree Days 1 (Base 50)    
Moisture  
Dew Point 48 °F    
Average Humidity 88    
Maximum Humidity 100    
Minimum Humidity 59    
Precipitation  
Precipitation 0.20 in - - ()
Sea Level Pressure  
Sea Level Pressure 30.04 in    
Wind  
Wind Speed 2 mph ()    
Max Wind Speed 7 mph    
Max Gust Speed -    
Visibility 5.0 miles    
Events Rain    
T = Trace of Precipitation, MM = Missing Value Source: Averaged Metar Reports

Daily Weather History Graph

Daily Weather History Graph

Search for Another Location

Airport or City:

Trip Planner

Search our weather history database for the weather conditions in past years. The results will help you decide how hot, cold, wet, or windy it might be!

Date:

Astronomy

Nov. 23, 2013 Rise Set
Actual Time 5:57 AM IRST 4:22 PM IRST
Civil Twilight 5:31 AM IRST 4:48 PM IRST
Nautical Twilight 5:02 AM IRST 5:18 PM IRST
Astronomical Twilight 4:32 AM IRST 5:47 PM IRST
Moon 9:20 PM IRST (11/23) 10:06 AM IRST (11/23)
Length of Visible Light 11h 17m
Length of Day
10h 24m
Waning Gibbous, 73% of the Moon is Illuminated
Nov 23
Waning Gibbous
Nov 25
Last Quarter
Dec 3
New
Dec 9
First Quarter
Dec 17
Full

Hourly Weather History & Observations

Time (IRST) Temp. Windchill Dew Point Humidity Pressure Visibility Wind Dir Wind Speed Gust Speed Precip Events Conditions
12:30 AM 47 °F - 46 °F 95% 30.01 in 6 mi Calm Calm - -   Partly Cloudy
12:30 AM 48.2 °F - 46.4 °F 93% 29.98 in 6.2 mi Calm Calm - N/A   Overcast
3:30 AM 47 °F - 46 °F 93% 30.01 in 5 mi Calm Calm - -   Mist
3:30 AM 46.4 °F - 46.4 °F 100% 29.98 in 5.0 mi Calm Calm - N/A   Mostly Cloudy
5:30 AM 46.4 °F - 46.4 °F 100% 30.01 in 6.2 mi Calm Calm - N/A   Overcast
6:30 AM 47 °F - 46 °F 92% 30.05 in 4 mi Calm Calm - - Rain Rain
6:30 AM 46.4 °F - 46.4 °F 100% 30.01 in 3.7 mi Calm Calm - N/A Rain Rain
7:30 AM 46.4 °F 44.3 °F 46.4 °F 100% 30.04 in 3.1 mi SSE 4.6 mph - N/A Rain Light Rain
8:30 AM 46.4 °F - 46.4 °F 100% 30.04 in 1.2 mi Calm Calm - N/A Rain Rain
9:30 AM 48 °F - 47 °F 93% 30.09 in 3 mi SSE 4.5 mph - - Rain Light Rain
9:30 AM 48.2 °F - 46.4 °F 93% 30.06 in 3.1 mi SSE 4.6 mph - N/A Rain Light Rain
10:30 AM 50.0 °F - 46.4 °F 87% 30.04 in 4.3 mi South 4.6 mph - N/A   Overcast
11:30 AM 51.8 °F - 46.4 °F 82% 30.04 in 5.0 mi Calm Calm - N/A   Mostly Cloudy
12:30 PM 54 °F - 49 °F 79% 30.03 in 5 mi South 4.5 mph - -   Mist
12:30 PM 53.6 °F - 50.0 °F 88% 30.01 in 5.0 mi South 4.6 mph - N/A   Mostly Cloudy
1:30 PM 55.4 °F - 50.0 °F 82% 29.98 in 5.0 mi Variable 2.3 mph - N/A   Mostly Cloudy
2:30 PM 55.4 °F - 50.0 °F 82% 29.98 in 5.0 mi Variable 2.3 mph - N/A   Mostly Cloudy
3:30 PM 55 °F - 50 °F 76% 30.01 in 5 mi Calm Calm - -   Mist
3:30 PM 55.4 °F - 50.0 °F 82% 30.01 in 5.0 mi Calm Calm - N/A   Mostly Cloudy
4:30 PM 64.4 °F - 50.0 °F 59% 30.01 in 5.0 mi North 4.6 mph - N/A   Mostly Cloudy
5:30 PM 53.6 °F - 50.0 °F 88% 30.04 in 6.2 mi North 6.9 mph - N/A   Mostly Cloudy
6:30 PM 53 °F - 50 °F 84% 30.09 in 6 mi NNE 4.5 mph - -   Scattered Clouds
6:30 PM 53.6 °F - 50.0 °F 88% 30.06 in 6.2 mi NNE 4.6 mph - N/A   Mostly Cloudy
7:30 PM 53.6 °F - 50.0 °F 88% 30.09 in 6.2 mi NNE 4.6 mph - N/A   Mostly Cloudy
8:30 PM 53.6 °F - 50.0 °F 88% 30.09 in 6.2 mi ENE 4.6 mph - N/A   Mostly Cloudy
9:30 PM 53 °F - 50 °F 85% 30.11 in 6 mi Calm Calm - -   Scattered Clouds
9:30 PM 53.6 °F - 50.0 °F 88% 30.09 in 6.2 mi Calm Calm - N/A   Mostly Cloudy